• In Hungary
  • List of Countries
  • For 7 days
  • Water Temperature
  • Satellite Maps
  • Weather Map
  • News
  • Weather Widgets
  • user-avatar
    Login

    Hourly Weather Auckland

    Today, 20 October, Saturday

    Time Temperature Precipitation Wind Pressure Humidity
    00:00 +10°C° 0 mm 3 mps 771 mmHg 92%
    01:00 +10°C° 0 mm 2 mps 771 mmHg 94%
    02:00 +9°C° 0 mm 2 mps 771 mmHg 95%
    03:00 +9°C° 0 mm 2 mps 771 mmHg 96%
    04:00 +9°C° 0 mm 2 mps 771 mmHg 97%
    05:00 +9°C° 0 mm 2 mps 771 mmHg 97%
    06:00 +10°C° 0 mm 2 mps 771 mmHg 97%
    07:00 +13°C° 0 mm 2 mps 771 mmHg 86%
    08:00 +16°C° 0 mm 2 mps 771 mmHg 75%
    09:00 +19°C° 0 mm 2 mps 771 mmHg 64%
    10:00 +20°C° 0 mm 3 mps 771 mmHg 59%
    11:00 +21°C° 0 mm 3 mps 771 mmHg 55%
    12:00 +22°C° 0 mm 3 mps 770 mmHg 51%
    13:00 +22°C° 0 mm 3 mps 770 mmHg 51%
    14:00 +22°C° 0 mm 3 mps 770 mmHg 52%
    15:00 +22°C° 0 mm 3 mps 769 mmHg 53%
    16:00 +21°C° 0 mm 2 mps 769 mmHg 58%
    17:00 +19°C° 0 mm 2 mps 769 mmHg 64%
    18:00 +18°C° 0 mm 2 mps 769 mmHg 69%
    19:00 +16°C° 0 mm 1 mps 769 mmHg 77%
    20:00 +15°C° 0 mm 1 mps 770 mmHg 85%
    21:00 +12°C° 0 mm 0 mps 770 mmHg 93%
    22:00 +12°C° 0 mm 0 mps 770 mmHg 93%
    23:00 +11°C° 0 mm 0 mps 770 mmHg 93%

    Tomorrow, 21 October, Sunday

    Time Temperature Precipitation Wind Pressure Humidity
    00:00 +11°C° 0 mm 0 mps 770 mmHg 94%
    01:00 +11°C° 0 mm 0 mps 770 mmHg 94%
    02:00 +12°C° 0 mm 1 mps 770 mmHg 94%
    03:00 +12°C° 0 mm 1 mps 769 mmHg 94%
    04:00 +12°C° 0 mm 1 mps 769 mmHg 94%
    05:00 +12°C° 0 mm 1 mps 769 mmHg 95%
    06:00 +12°C° 0 mm 1 mps 769 mmHg 95%
    07:00 +14°C° 0 mm 1 mps 770 mmHg 84%
    08:00 +18°C° 0 mm 1 mps 770 mmHg 72%
    09:00 +20°C° 0 mm 2 mps 770 mmHg 60%
    10:00 +20°C° 0 mm 2 mps 770 mmHg 58%
    11:00 +21°C° 0 mm 2 mps 769 mmHg 55%
    12:00 +22°C° 0 mm 3 mps 769 mmHg 52%
    13:00 +22°C° 0 mm 3 mps 769 mmHg 52%
    14:00 +22°C° 0 mm 3 mps 769 mmHg 52%
    15:00 +22°C° 0 mm 3 mps 768 mmHg 51%
    16:00 +21°C° 0 mm 3 mps 768 mmHg 57%
    17:00 +19°C° 0 mm 3 mps 768 mmHg 62%
    18:00 +18°C° 0 mm 2 mps 768 mmHg 68%
    19:00 +17°C° 0 mm 2 mps 769 mmHg 76%
    20:00 +15°C° 0 mm 2 mps 769 mmHg 85%
    21:00 +14°C° 0 mm 2 mps 769 mmHg 94%
    22:00 +13°C° 0 mm 2 mps 769 mmHg 94%
    23:00 +13°C° 0 mm 2 mps 769 mmHg 95%

    Day after tomorrow, 22 October, Monday

    Time Temperature Precipitation Wind Pressure Humidity
    00:00 +13°C° 0 mm 2 mps 769 mmHg 96%
    01:00 +13°C° 0 mm 2 mps 769 mmHg 96%
    02:00 +12°C° 0 mm 2 mps 769 mmHg 96%
    03:00 +11°C° 0 mm 3 mps 769 mmHg 96%
    04:00 +12°C° 0 mm 2 mps 769 mmHg 96%
    05:00 +12°C° 0 mm 2 mps 769 mmHg 96%
    06:00 +12°C° 0 mm 2 mps 769 mmHg 96%
    07:00 +15°C° 0 mm 2 mps 769 mmHg 85%
    08:00 +17°C° 0 mm 2 mps 769 mmHg 74%
    09:00 +20°C° 0 mm 2 mps 770 mmHg 62%
    10:00 +23°C° 0 mm 2 mps 769 mmHg 57%
    11:00 +25°C° 0 mm 3 mps 769 mmHg 51%
    12:00 +27°C° 0 mm 3 mps 769 mmHg 46%
    13:00 +26°C° 0 mm 3 mps 769 mmHg 47%
    14:00 +25°C° 0 mm 3 mps 768 mmHg 49%
    15:00 +25°C° 0 mm 3 mps 768 mmHg 51%
    16:00 +22°C° 0 mm 3 mps 768 mmHg 56%
    17:00 +20°C° 0 mm 3 mps 768 mmHg 62%
    18:00 +19°C° 0 mm 3 mps 768 mmHg 68%
    19:00 +17°C° 0 mm 3 mps 769 mmHg 75%
    20:00 +16°C° 0 mm 2 mps 769 mmHg 82%
    21:00 +14°C° 0 mm 2 mps 770 mmHg 88%
    22:00 +14°C° 0 mm 2 mps 770 mmHg 90%
    23:00 +13°C° 0 mm 2 mps 770 mmHg 92%

    23 October, Tuesday

    Time Temperature Precipitation Wind Pressure Humidity
    00:00 +13°C° 0 mm 1 mps 770 mmHg 94%
    01:00 +13°C° 0 mm 1 mps 769 mmHg 94%
    02:00 +12°C° 0 mm 1 mps 769 mmHg 95%
    03:00 +12°C° 0 mm 1 mps 769 mmHg 95%
    04:00 +12°C° 0 mm 1 mps 769 mmHg 94%
    05:00 +12°C° 0 mm 1 mps 769 mmHg 94%
    06:00 +13°C° 0 mm 1 mps 769 mmHg 94%
    07:00 +15°C° 0 mm 1 mps 770 mmHg 82%
    08:00 +19°C° 0 mm 1 mps 770 mmHg 71%
    09:00 +22°C° 0 mm 1 mps 770 mmHg 59%
    10:00 +23°C° 0 mm 1 mps 769 mmHg 55%
    11:00 +24°C° 0 mm 1 mps 769 mmHg 52%
    12:00 +25°C° 0 mm 2 mps 769 mmHg 48%
    13:00 +25°C° 0 mm 2 mps 768 mmHg 50%
    14:00 +24°C° 0 mm 3 mps 768 mmHg 51%
    15:00 +24°C° 0 mm 3 mps 768 mmHg 53%
    16:00 +21°C° 0 mm 3 mps 768 mmHg 58%
    17:00 +20°C° 0 mm 3 mps 768 mmHg 63%
    18:00 +19°C° 0 mm 3 mps 768 mmHg 68%
    19:00 +18°C° 0 mm 2 mps 768 mmHg 75%
    20:00 +16°C° 0 mm 2 mps 768 mmHg 82%
    21:00 +15°C° 0 mm 1 mps 769 mmHg 89%
    22:00 +14°C° 0 mm 1 mps 769 mmHg 90%
    23:00 +14°C° 0 mm 1 mps 768 mmHg 92%

    24 October, Wednesday

    Time Temperature Precipitation Wind Pressure Humidity
    00:00 +14°C° 0 mm 1 mps 768 mmHg 93%
    01:00 +13°C° 0 mm 1 mps 768 mmHg 95%
    02:00 +13°C° 0 mm 1 mps 768 mmHg 96%
    03:00 +13°C° 0 mm 1 mps 767 mmHg 97%
    04:00 +13°C° 0 mm 1 mps 767 mmHg 96%
    05:00 +13°C° 0 mm 1 mps 767 mmHg 96%
    06:00 +13°C° 0 mm 1 mps 768 mmHg 96%
    07:00 +16°C° 0 mm 1 mps 768 mmHg 84%
    08:00 +19°C° 0 mm 1 mps 768 mmHg 72%
    09:00 +22°C° 0 mm 1 mps 768 mmHg 60%
    10:00 +23°C° 0 mm 2 mps 767 mmHg 57%
    11:00 +24°C° 0 mm 2 mps 767 mmHg 53%
    12:00 +25°C° 0 mm 3 mps 767 mmHg 49%
    13:00 +25°C° 0 mm 3 mps 766 mmHg 50%
    14:00 +24°C° 0 mm 3 mps 766 mmHg 50%
    15:00 +24°C° 0 mm 3 mps 765 mmHg 51%
    16:00 +22°C° 0 mm 3 mps 765 mmHg 55%
    17:00 +21°C° 0 mm 3 mps 765 mmHg 59%
    18:00 +19°C° 0 mm 3 mps 766 mmHg 64%
    19:00 +18°C° 0 mm 2 mps 766 mmHg 72%
    20:00 +16°C° 0 mm 2 mps 766 mmHg 81%
    21:00 +14°C° 0 mm 2 mps 766 mmHg 89%
    22:00 +14°C° 0 mm 2 mps 766 mmHg 91%
    23:00 +14°C° 0 mm 2 mps 766 mmHg 93%

    25 October, Thursday

    Time Temperature Precipitation Wind Pressure Humidity
    00:00 +13°C° 0 mm 2 mps 765 mmHg 96%
    01:00 +12°C° 0 mm 3 mps 765 mmHg 96%
    02:00 +12°C° 0 mm 3 mps 765 mmHg 96%
    03:00 +12°C° 0 mm 3 mps 764 mmHg 97%
    04:00 +12°C° 0 mm 3 mps 764 mmHg 96%
    05:00 +12°C° 0 mm 3 mps 764 mmHg 96%
    06:00 +12°C° 0 mm 3 mps 764 mmHg 95%
    07:00 +14°C° 0 mm 4 mps 764 mmHg 84%
    08:00 +17°C° 0 mm 4 mps 764 mmHg 73%
    09:00 +19°C° 0 mm 5 mps 764 mmHg 62%
    10:00 +20°C° 0 mm 5 mps 764 mmHg 57%
    11:00 +21°C° 0 mm 5 mps 763 mmHg 52%
    12:00 +22°C° 0 mm 6 mps 763 mmHg 47%
    13:00 +22°C° 0 mm 6 mps 763 mmHg 48%
    14:00 +22°C° 0 mm 6 mps 762 mmHg 49%
    15:00 +21°C° 0 mm 7 mps 762 mmHg 50%
    16:00 +20°C° 0.1 mm 6 mps 762 mmHg 61%
    17:00 +19°C° 0.1 mm 6 mps 762 mmHg 72%
    18:00 +16°C° 0.1 mm 6 mps 762 mmHg 83%
    19:00 +16°C° 0.5 mm 6 mps 762 mmHg 87%
    20:00 +15°C° 0.5 mm 6 mps 762 mmHg 92%
    21:00 +15°C° 0.5 mm 5 mps 762 mmHg 97%
    22:00 +14°C° 0.4 mm 6 mps 762 mmHg 96%
    23:00 +13°C° 0.4 mm 6 mps 762 mmHg 95%
    Show more